FW1310 Weather Reports


time (UTC)temp
C
wind
direction
speed
KPH
gust
KPH
rain 1hr
cm
rain 24hr
cm
rain mn
cm
humidity
%
barometer
mb
20260507041004 15 148 1.6 3.2 0.00 0.00 0.00 84 1001.1
20260507040004 15 70 3.2 8.0 0.00 0.00 0.00 84 1001.2
20260507034505 15 356 3.2 9.7 0.00 0.00 0.00 84 1000.6
20260507034004 15 23 3.2 11.3 0.00 0.00 0.00 84 1000.7
20260507033504 15 89 4.8 11.3 0.00 0.00 0.00 84 1000.8
20260507032004 15 98 4.8 9.7 0.00 0.00 0.00 84 1000.6
20260507031504 15 284 3.2 11.3 0.00 0.00 0.00 84 1000.2
20260507031004 15 86 3.2 9.7 0.00 0.00 0.00 85 1000.4
20260507030504 15 105 3.2 11.3 0.00 0.00 0.00 85 1000.2
20260507030004 15 67 1.6 4.8 0.00 0.00 0.00 85 1000.5
20260507025504 15 93 3.2 8.0 0.00 0.00 0.00 85 1000.9
20260507024504 15 10 3.2 8.0 0.00 0.00 0.00 85 1000.7
20260507024003 15 91 3.2 8.0 0.00 0.00 0.00 85 1000.6
20260507023504 15 61 4.8 9.7 0.00 0.00 0.00 85 1000.4
20260507023004 15 79 3.2 9.7 0.00 0.00 0.00 85 1000.1
20260507022503 15 136 3.2 8.0 0.00 0.00 0.00 85 999.9
20260507020504 15 56 1.6 9.7 0.00 0.00 0.00 85 1000.3
20260507020004 15 111 3.2 4.8 0.00 0.00 0.00 84 1000.1
20260507015504 15 118 3.2 8.0 0.00 0.00 0.00 84 999.8
20260507015004 15 100 1.6 3.2 0.00 0.00 0.00 84 999.7
20260507014504 15 87 3.2 8.0 0.00 0.00 0.00 84 999.5
20260507014004 15 82 3.2 8.0 0.00 0.00 0.00 84 999.5
20260507013504 15 131 3.2 4.8 0.00 0.00 0.00 84 999.5
20260507012504 15 92 3.2 8.0 0.00 0.00 0.00 84 999.1
20260507012005 15 138 1.6 4.8 0.00 0.00 0.00 84 999.0
20260507011004 15 72 0.0 3.2 0.00 0.00 0.00 84 999.2
20260507010504 15 158 3.2 9.7 0.00 0.00 0.00 84 999.1
20260507010004 15 65 1.6 4.8 0.00 0.00 0.00 84 998.8
20260507005504 15 131 1.6 3.2 0.00 0.00 0.00 83 998.9
20260507005004 15 115 1.6 4.8 0.00 0.00 0.00 83 998.6
20260507004503 15 132 3.2 9.7 0.00 0.00 0.00 83 998.5
20260507004004 15 63 3.2 4.8 0.00 0.00 0.00 83 998.9
20260507003504 15 70 3.2 8.0 0.00 0.00 0.00 83 998.9
20260507003004 16 114 3.2 4.8 0.00 0.00 0.00 83 998.6
20260507002504 16 68 1.6 4.8 0.00 0.00 0.00 83 998.3
20260507002004 16 77 0.0 4.8 0.00 0.00 0.00 83 998.5
20260507001504 16 90 3.2 8.0 0.00 0.00 0.00 82 998.5
20260507001004 16 77 1.6 3.2 0.00 0.00 0.00 82 998.5
20260507000505 16 94 4.8 8.0 0.00 0.00 0.00 82 998.4
20260507000004 16 127 4.8 9.7 0.00 0.00 0.00 82 998.4
20260506235503 16 83 3.2 8.0 0.00 0.00 0.00 82 998.4
20260506235004 16 125 1.6 8.0 0.00 0.00 0.00 82 998.5
20260506234504 16 111 3.2 8.0 0.00 0.00 0.00 82 998.5
20260506234004 16 63 3.2 9.7 0.00 0.00 0.00 82 998.4
20260506233504 16 117 3.2 9.7 0.00 0.00 0.00 81 998.2
20260506233004 16 56 3.2 9.7 0.00 0.00 0.00 82 998.4
20260506232504 16 61 3.2 11.3 0.00 0.00 0.00 82 998.4
20260506232004 16 143 4.8 11.3 0.00 0.00 0.00 82 998.1
20260506231504 16 98 4.8 9.7 0.00 0.00 0.00 82 998.6
20260506231004 16 121 3.2 8.0 0.00 0.00 0.00 82 998.7
20260506230504 16 123 3.2 11.3 0.00 0.00 0.00 81 998.4
20260506230004 16 103 3.2 12.9 0.00 0.00 0.00 81 998.0
20260506225005 16 314 3.2 4.8 0.00 0.00 0.00 80 998.1
20260506224504 16 84 4.8 9.7 0.00 0.00 0.00 82 998.4
20260506224004 16 116 6.4 11.3 0.00 0.00 0.00 82 998.3
20260506223504 16 117 3.2 9.7 0.00 0.00 0.00 81 998.2
20260506223004 16 180 3.2 11.3 0.00 0.00 0.00 82 998.2
20260506222504 16 101 4.8 11.3 0.00 0.00 0.00 82 998.2
20260506222004 15 89 4.8 12.9 0.00 0.00 0.00 83 997.9
20260506221504 16 120 4.8 11.3 0.00 0.00 0.00 82 998.1
20260506221004 15 97 4.8 9.7 0.00 0.00 0.00 82 998.0
20260506220504 15 48 3.2 11.3 0.00 0.00 0.00 83 998.4
20260506220004 15 89 3.2 9.7 0.00 0.00 0.00 83 998.2
20260506215504 15 89 4.8 11.3 0.00 0.00 0.00 84 998.4
20260506215004 15 115 4.8 11.3 0.00 0.00 0.00 84 998.1
20260506214504 15 102 6.4 12.9 0.00 0.00 0.00 83 998.1
20260506213503 15 106 4.8 9.7 0.00 0.00 0.00 84 998.1
20260506212504 15 64 4.8 14.5 0.00 0.00 0.00 84 998.3
20260506212004 15 122 4.8 14.5 0.00 0.00 0.00 83 998.4
20260506211504 15 121 3.2 12.9 0.00 0.00 0.00 84 998.4
20260506211004 15 302 4.8 14.5 0.00 0.00 0.00 84 998.5
20260506210504 15 87 6.4 14.5 0.00 0.00 0.00 84 998.6
20260506210004 15 107 4.8 9.7 0.00 0.00 0.00 83 998.5
20260506205504 15 60 4.8 12.9 0.00 0.00 0.00 82 998.6
20260506205005 15 100 3.2 12.9 0.00 0.00 0.00 84 998.4
20260506203504 15 110 4.8 14.5 0.00 0.00 0.00 83 998.5
20260506203004 15 94 4.8 9.7 0.00 0.00 0.00 83 998.6
20260506202504 15 140 6.4 11.3 0.00 0.00 0.00 83 998.7
20260506202004 15 88 4.8 9.7 0.00 0.00 0.00 83 998.7
20260506201504 15 100 4.8 11.3 0.00 0.00 0.00 83 998.7
20260506201003 15 82 6.4 9.7 0.00 0.00 0.00 82 998.4
20260506200504 15 81 8.0 12.9 0.00 0.00 0.00 82 998.6
20260506200004 15 134 4.8 11.3 0.00 0.00 0.00 82 998.6
20260506195004 15 101 8.0 12.9 0.00 0.00 0.00 83 998.7
20260506194504 16 107 6.4 14.5 0.00 0.00 0.00 82 998.6
20260506193504 16 94 4.8 11.3 0.00 0.00 0.00 81 998.4
20260506193004 16 94 4.8 14.5 0.00 0.00 0.00 82 998.5
20260506192504 16 74 4.8 14.5 0.00 0.00 0.00 82 998.6
20260506192004 17 78 8.0 16.1 0.00 0.00 0.00 81 998.4
20260506191504 17 77 4.8 16.1 0.00 0.00 0.00 81 998.5
20260506191004 17 125 3.2 11.3 0.00 0.00 0.00 81 998.5
20260506190504 17 149 4.8 11.3 0.00 0.00 0.00 82 998.5
20260506190004 17 60 6.4 12.9 0.00 0.00 0.00 83 998.5
20260506185004 17 60 6.4 14.5 0.00 0.00 0.00 83 998.5
20260506184504 17 78 6.4 11.3 0.00 0.00 0.00 82 998.5
20260506184003 18 46 4.8 12.9 0.00 0.00 0.00 82 998.4
20260506183504 18 64 4.8 12.9 0.00 0.00 0.00 81 998.4
20260506183005 18 40 8.0 14.5 0.00 0.00 0.00 81 998.4
20260506182504 20 107 6.4 16.1 0.00 0.00 0.00 78 998.3
20260506182004 20 136 4.8 12.9 0.00 0.00 0.00 76 998.3
20260506181504 21 98 6.4 14.5 0.00 0.00 0.00 74 998.2
20260506181004 21 97 4.8 9.7 0.00 0.00 0.00 73 998.1
20260506180504 22 80 3.2 8.0 0.00 0.00 0.00 73 998.2
20260506175504 22 149 3.2 9.7 0.00 0.00 0.00 72 997.9
20260506175004 22 110 4.8 9.7 0.00 0.00 0.00 71 997.9
20260506174504 22 238 1.6 8.0 0.00 0.00 0.00 73 997.7
20260506174004 22 51 1.6 4.8 0.00 0.00 0.00 72 997.6
20260506173504 22 259 3.2 8.0 0.00 0.00 0.00 71 997.6
20260506173004 21 160 1.6 4.8 0.00 0.00 0.00 73 997.4
20260506172504 21 266 4.8 8.0 0.00 0.00 0.00 73 997.5
20260506172004 21 205 3.2 8.0 0.00 0.00 0.00 72 997.5
20260506171504 21 266 1.6 4.8 0.00 0.00 0.00 72 997.5
20260506170504 21 120 3.2 8.0 0.00 0.00 0.00 75 997.6
20260506170004 20 183 6.4 11.3 0.00 0.00 0.00 76 997.3
20260506165504 20 192 4.8 11.3 0.00 0.00 0.00 77 997.4
20260506164504 19 238 1.6 9.7 0.00 0.00 0.00 80 997.6
20260506164004 18 265 3.2 8.0 0.00 0.00 0.00 82 997.6
20260506163504 18 244 3.2 8.0 0.00 0.00 0.00 83 997.9
20260506163004 17 283 3.2 8.0 0.00 0.00 0.00 84 998.2
20260506162004 16 153 3.2 8.0 0.00 0.00 0.00 90 998.8
20260506161504 15 191 4.8 9.7 0.00 0.00 0.00 91 998.4
20260506160504 15 175 4.8 14.5 0.00 0.00 0.00 91 998.6
20260506160004 15 107 4.8 9.7 0.00 0.00 0.00 92 999.1
20260506155504 15 47 1.6 8.0 0.00 0.00 0.00 93 999.0
20260506155004 15 148 4.8 9.7 0.00 0.00 0.00 93 999.2
20260506154504 15 115 6.4 16.1 0.00 0.00 0.00 93 999.0
20260506154004 15 91 8.0 12.9 0.00 0.00 0.00 93 998.9
20260506153503 15 41 4.8 20.9 0.00 0.00 0.00 93 999.3
20260506153004 16 106 8.0 25.7 0.00 0.00 0.00 92 999.0
20260506152504 16 120 8.0 16.1 0.00 0.00 0.00 92 999.2
20260506152004 16 98 4.8 12.9 0.00 0.00 0.00 91 998.9
20260506151504 16 113 6.4 11.3 0.00 0.00 0.00 91 999.3
20260506151004 16 87 4.8 16.1 0.00 0.00 0.00 91 999.0
20260506150504 16 109 8.0 12.9 0.00 0.00 0.00 91 998.4
20260506150004 16 297 6.4 16.1 0.00 0.00 0.00 91 997.9
20260506145504 16 154 6.4 16.1 0.00 0.00 0.00 92 997.9
20260506145004 17 121 6.4 16.1 0.00 0.00 0.00 91 997.8
20260506144504 17 162 8.0 14.5 0.00 0.00 0.00 91 997.3
20260506144003 17 184 4.8 11.3 0.00 0.00 0.00 91 997.1
20260506143004 18 58 9.7 14.5 0.00 0.00 0.00 90 997.3
20260506142504 18 63 4.8 12.9 0.00 0.00 0.00 90 997.2
20260506142004 18 136 4.8 11.3 0.00 0.00 0.00 90 996.8
20260506141504 19 95 8.0 11.3 0.00 0.00 0.00 89 996.5
20260506141004 19 133 3.2 4.8 0.00 0.00 0.00 90 996.5
20260506135004 23 53 3.2 9.7 0.00 0.00 0.00 89 996.2
20260506134504 23 160 0.0 1.6 0.00 0.00 0.00 91 996.0
20260506134004 23 182 1.6 4.8 0.00 0.00 0.00 91 995.8
20260506133504 23 198 3.2 4.8 0.00 0.00 0.00 91 995.7
20260506133004 23 183 3.2 4.8 0.00 0.00 0.00 91 995.8
20260506132504 23 185 1.6 3.2 0.00 0.00 0.00 92 995.8
20260506132004 23 226 0.0 0.0 0.00 0.00 0.00 92 995.9
20260506131504 23 223 1.6 1.6 0.00 0.00 0.00 92 995.8
20260506130504 23 193 1.6 4.8 0.00 0.00 0.00 93 995.3
20260506130005 22 277 0.0 3.2 0.00 0.00 0.00 93 995.4
20260506125504 22 215 1.6 3.2 0.00 0.00 0.00 93 995.4
20260506125004 22 190 1.6 3.2 0.00 0.00 0.00 93 995.4
20260506124504 22 192 1.6 4.8 0.00 0.00 0.00 93 995.3
20260506124004 22 210 0.0 3.2 0.00 0.00 0.00 93 995.1
20260506123503 22 223 0.0 0.0 0.00 0.00 0.00 93 995.3
20260506122004 22 197 1.6 3.2 0.00 0.00 0.00 92 995.0
20260506121504 22 206 0.0 0.0 0.00 0.00 0.00 92 995.0
20260506121003 22 244 0.0 0.0 0.00 0.00 0.00 92 995.0
20260506120004 22 271 0.0 0.0 0.00 0.00 0.00 92 994.9
20260506115504 22 297 0.0 0.0 0.00 0.00 0.00 92 994.9
20260506115004 22 265 0.0 0.0 0.00 0.00 0.00 91 994.8
20260506114504 22 258 0.0 0.0 0.00 0.00 0.00 91 994.8
20260506114003 22 273 0.0 0.0 0.00 0.00 0.00 91 994.8
20260506113004 22 288 0.0 0.0 0.00 0.00 0.00 90 995.0
20260506112504 23 289 0.0 0.0 0.00 0.00 0.00 90 994.9
20260506111503 23 279 0.0 1.6 0.00 0.00 0.00 90 994.9
20260506110504 23 294 0.0 1.6 0.00 0.00 0.00 90 994.9
20260506105504 23 314 1.6 3.2 0.00 0.00 0.00 90 995.0
20260506105003 23 301 0.0 1.6 0.00 0.00 0.00 89 995.0
20260506104504 23 300 0.0 4.8 0.00 0.00 0.00 89 995.0
20260506104004 23 322 1.6 4.8 0.00 0.00 0.00 89 994.9
20260506103504 23 314 1.6 4.8 0.00 0.00 0.00 89 995.0
20260506103004 23 268 1.6 4.8 0.00 0.00 0.00 89 995.1
20260506102504 23 285 0.0 1.6 0.00 0.00 0.00 89 994.8
20260506102004 23 266 3.2 4.8 0.00 0.00 0.00 89 994.8
20260506101504 23 355 1.6 3.2 0.00 0.00 0.00 89 994.7
20260506101004 23 285 0.0 4.8 0.00 0.00 0.00 89 994.5
20260506100504 23 278 0.0 3.2 0.00 0.00 0.00 89 994.5
20260506100005 23 300 0.0 4.8 0.00 0.00 0.00 89 994.4
20260506095504 23 331 3.2 8.0 0.00 0.00 0.00 89 994.4
20260506095004 23 309 0.0 3.2 0.00 0.00 0.00 89 994.5
20260506094504 23 0 1.6 3.2 0.00 0.00 0.00 89 994.5
20260506094004 23 310 0.0 3.2 0.00 0.00 0.00 89 994.5
20260506093504 23 294 1.6 3.2 0.00 0.00 0.00 88 994.4
20260506093004 23 249 0.0 4.8 0.00 0.00 0.00 88 994.2
20260506092004 23 278 0.0 3.2 0.00 0.00 0.00 88 994.0
20260506091004 23 271 1.6 11.3 0.00 0.00 0.00 88 994.1
20260506090504 23 237 1.6 3.2 0.00 0.00 0.00 88 993.9
20260506090004 23 252 0.0 4.8 0.00 0.00 0.00 88 993.9
20260506085504 23 324 3.2 9.7 0.00 0.00 0.00 88 993.9
20260506085004 23 233 1.6 4.8 0.00 0.00 0.00 88 993.9
20260506084504 23 349 3.2 9.7 0.00 0.00 0.00 88 993.7
20260506083004 23 337 4.8 12.9 0.00 0.00 0.00 88 993.9
20260506082504 23 262 3.2 11.3 0.00 0.00 0.00 88 993.9
20260506082004 23 286 3.2 9.7 0.00 0.00 0.00 88 993.8
20260506080504 23 290 3.2 8.0 0.00 0.00 0.00 88 993.8
20260506073504 23 248 3.2 9.7 0.00 0.00 0.00 88 993.9
20260506073004 23 250 4.8 16.1 0.00 0.00 0.00 88 994.1
20260506072504 23 229 3.2 9.7 0.00 0.00 0.00 88 993.9
20260506072003 23 283 4.8 9.7 0.00 0.00 0.00 88 994.0
20260506071504 23 270 1.6 9.7 0.00 0.00 0.00 88 994.2
20260506071004 23 342 6.4 14.5 0.00 0.00 0.00 88 994.2
20260506070504 23 323 3.2 11.3 0.00 0.00 0.00 88 994.0
20260506062505 23 348 4.8 11.3 0.00 0.00 0.00 88 994.0
20260506062003 23 242 3.2 11.3 0.00 0.00 0.00 88 993.9
20260506061504 23 274 6.4 11.3 0.00 0.00 0.00 88 994.0
20260506061004 23 288 4.8 12.9 0.00 0.00 0.00 88 993.9
20260506060504 23 305 4.8 9.7 0.00 0.00 0.00 88 993.7
20260506045004 23 279 4.8 12.9 0.00 0.00 0.00 88 994.0
20260506044504 23 257 4.8 11.3 0.00 0.00 0.00 88 994.0
20260506043505 23 272 3.2 8.0 0.00 0.00 0.00 88 994.1
20260506043004 23 250 3.2 8.0 0.00 0.00 0.00 88 994.0
20260506042504 23 262 3.2 3.2 0.00 0.00 0.00 87 994.0
20260506042004 24 239 1.6 8.0 0.00 0.00 0.00 87 993.8
20260506041504 24 266 3.2 8.0 0.00 0.00 0.00 87 993.8